Powrót do katalogu

CZ-6A DEB

AktywnySSO
NORAD 58430·DEBRIS·🇨🇳 China

Wystrzelony Nov 11, 2022 z Taiyuan Satellite Launch Center

Loading…

Następne Przeloty (najbliższe 24 godziny)

TLE

ŚwieżeSource: Space-Track

Epoka: Sep 14, 2026, 22:58 UTC

1 58430U 22151AHY 26257.95702074  .00003309  00000-0  16538-2 0  9997
2 58430  98.9064 256.3019 0087662 113.1730 247.8708 14.15467859 91601

Śledź CZ-6A DEB w czasie rzeczywistym z AllMySat

Download on the App Store